Regional Weather Roundup
Issued by NWS

Home | Current Version | Previous Version | Graphics & Text | Print | Product List | Glossary On
Versions: 1 2 3 4 5 6 7 8 9 10 11 12 13 14 15 16 17 18 19 20 21 22 23 24 25 26 27 28 29 30 31 32 33 34 35 36 37 38 39 40 41 42 43 44 45 46 47 48 49 50
000
ASUS45 KBOU 240407
RWRCO

WEATHER ROUNDUP FOR COLORADO
NATIONAL WEATHER SERVICE DENVER/BOULDER CO
1000 PM MDT TUE SEP 23 2014

NOTE: "FAIR" INDICATES FEW OR NO CLOUDS BELOW 12000 FEET WITH NO
SIGNIFICANT WEATHER AND/OR OBSTRUCTIONS TO VISIBILITY.

COZ001>005-013-030-031-240500-
...NORTHWEST COLORADO...

CITY           SKY/WX    TMP DP  RH WIND       PRES   REMARKS
CRAIG          CLEAR     53  45  74 E3        30.28R
HAYDEN         PTCLDY    57  43  58 E3        30.30R
MEEKER         CLEAR     52  44  74 NE6       30.30R
MOUNT WERNER   NOT AVBL
STEAMBOAT SPGS NOT AVBL
WALDEN         PTCLDY    43  37  81 SE7       30.40R
$$

COZ006>008-011-240500-
...WEST CENTRAL VALLEYS...

CITY           SKY/WX    TMP DP  RH WIND       PRES   REMARKS
GRAND JUNCTION CLEAR     65  47  52 CALM      30.17R
MONTROSE       CLEAR     61  51  70 SE10      30.27R
EAGLE          CLEAR     55  48  76 E3        30.34R
RIFLE          CLEAR     57  50  77 SE6       30.24R
DELTA          CLEAR     64  50  60 NE3       30.22R
NUCLA          CLEAR     63  43  48 E9        30.29R
$$

COZ017>023-064>068-240500-
...SOUTHWEST COLORADO...

CITY           SKY/WX    TMP DP  RH WIND       PRES   REMARKS
DURANGO        CLEAR     57  45  64 CALM      30.27R
CORTEZ         CLEAR     56  45  66 NE9       30.25R
PAGOSA SPRINGS CLEAR     54  41  62 CALM      30.36R
TELLURIDE      NOT AVBL
WOLF CREEK PAS CLEAR     45  34  65 SW6       30.63R
$$

COZ009-010-012-014-032>034-037-058>063-240500-
...CENTRAL COLORADO...

CITY           SKY/WX    TMP DP  RH WIND       PRES   REMARKS
ASPEN          PTCLDY    51  42  71 SW7       30.39R
BUENA VISTA    PTCLDY    55  41  59 N7        30.40R
COPPER MTN     CLOUDY    45  36  70 W13       30.66R
BERTHOUD PASS  MOCLDY    36  34  93 NW21      30.67R
COTTONWOOD PAS PTCLDY    54  37  54 W9        30.50S
GUNNISON       PTCLDY    54  39  58 N6        30.41R
KREMMLING      PTCLDY    52  45  76 CALM      30.39R
LEADVILLE      PTCLDY    45  35  68 E3        30.51R
MONARCH PASS   CLEAR     43  34  70 SW12      30.75R
SALIDA         PTCLDY    58  41  53 SW8       30.44R
SUNLIGHT       CLEAR     50  41  71 CALM      30.59S
WILKERSON PASS NOT AVBL
$$

COZ069>075-240500-
...SAN LUIS VALLEY/SANGRE DE CRISTO MOUNTAINS...

CITY           SKY/WX    TMP DP  RH WIND       PRES   REMARKS
ALAMOSA        PTCLDY    60  34  37 N10       30.32R
LA VETA PASS   CLEAR     54  34  47 NE6       30.52R
SAGUACHE       CLEAR     59  37  44 N8        30.37S
$$

COZ035-036-038>040-240500-
...NORTHERN COLORADO FRONT RANGE...

CITY           SKY/WX    TMP DP  RH WIND       PRES   REMARKS
DENVER INTL AP PTCLDY    61  44  53 S12       30.19R
DMNS CITY PARK   N/A     63  47  56 S5        30.20R
AURORA         PTCLDY    60  46  61 S6        30.22R
FRONT RANGE AP PTCLDY    59  46  63 S7        30.21R
ERIE MUNI ARPT CLOUDY    62  48  59 CALM      30.18R
BOULDER MUN AP CLOUDY    66  46  48 CALM      30.20R
CENTENNIAL     PTCLDY    58  47  66 S7        30.23R
BROOMFIELD     MOCLDY    70  41  35 CALM      30.22R
FORT COLLINS   PTCLDY    64  46  52 CALM      30.19R
LONGMONT       MOCLDY    65  47  53 W6        30.20R
$$

COZ041-046-047-076>085-087-088-240500-
...PIKES PEAK/PALMER DIVIDE AND SOUTHERN FOOTHILLS...

CITY           SKY/WX    TMP DP  RH WIND       PRES   REMARKS
COLO. SPRINGS  PTCLDY    67  41  38 SW3       30.26R
A. F. ACADEMY  MOCLDY    57  42  57 N6        30.28R
ELLICOTT       NOT AVBL
FALCON         PTCLDY    60  40  47 N6        30.31R
FORT CARSON    PTCLDY    60  42  51 NW5       30.23R
LIMON          PTCLDY    53  48  83 W3        30.20R
MONUMENT HILL  PTCLDY    52  37  58 SW3       30.31R
TRINIDAD       PTCLDY    64  45  49 W12       30.18R
$$

COZ042>045-048>051-090-091-240500-
...NORTHEAST COLORADO...

CITY           SKY/WX    TMP DP  RH WIND       PRES   REMARKS
GREELEY ARPT   PTCLDY    59  41  51 W3        30.16R
AKRON          CLEAR     60  49  66 W10       30.13R
BURLINGTON     PTCLDY    60  55  83 W6        30.11S
WRAY           CLEAR     64  55  75 W9        30.06S
STERLING       CLEAR     61  52  72 CALM      30.10R
HOLYOKE        CLEAR     61  50  67 NW3       30.07R
FORT MORGAN    MOCLDY    63  42  46 NW7       30.14R
$$

COZ086-089-092>099-240500-
...SOUTHEAST COLORADO...

CITY           SKY/WX    TMP DP  RH WIND       PRES   REMARKS
PUEBLO         MOCLDY    71  43  36 SE6       30.15R
LA JUNTA       CLEAR     67  52  58 E8        30.10R
LAMAR          PTCLDY    64  51  62 CALM      30.06R
SPRINGFIELD      N/A     70  54  56 E5        30.09R
$$



USA.gov is the U.S. government's official web portal to all federal, state and local government web resources and services.